EHI
3 1 0 0 0 0 0 0 0 0 0 0 0 0 0 0 0 0 0 0 0 1 4 8 9 7 4 4 6 7 7 9 11 11 9 8 6 3 1 1 0 0 0 0 1 1 1 0 0
1 0 0 0 0 0 0 0 0 0 0 0 0 0 0 0 0 0 0 0 0 2 4 7 9 7 5 5 6 7 7 8 9 9 8 7 5 3 1 1 1 0 0 0 1 2 1 1 1
0 0 0 0 0 0 0 0 0 0 0 0 0 0 1 1 0 0 0 0 1 3 4 7 9 8 6 6 7 7 7 6 6 6 4 3 3 1 0 1 1 1 0 0 1 1 1 1 2
0 0 0 0 0 0 0 0 0 0 0 0 0 0 1 2 1 0 0 0 1 2 3 6 9 10 9 9 9 8 6 5 4 3 2 1 1 0 0 0 0 1 1 1 0 0 1 2 3
0 1 1 0 0 0 0 0 0 0 0 0 0 0 1 1 1 0 0 1 1 1 1 5 10 13 12 11 11 8 4 3 3 3 2 2 2 1 0 0 0 1 1 1 0 1 2 4 4
2 2 2 0 0 0 0 0 0 0 0 0 0 0 0 0 0 0 0 1 1 1 1 3 8 12 12 11 10 7 3 2 2 2 3 4 4 2 0 0 0 0 0 0 1 2 4 5 5
2 3 2 0 0 0 0 0 0 1 0 0 0 0 0 0 0 0 0 0 1 2 2 2 3 6 9 8 7 6 4 2 1 1 2 4 4 2 0 0 0 0 1 1 2 4 4 5 6
1 1 1 0 0 0 0 0 0 0 0 0 0 0 0 0 1 2 1 0 1 2 2 1 0 2 4 4 5 5 4 2 0 0 1 2 2 1 0 0 1 2 3 3 4 5 4 4 6
0 0 0 0 0 0 0 0 0 0 0 0 0 0 0 2 3 3 2 1 1 2 2 1 0 0 1 1 2 2 2 1 0 0 0 0 0 0 0 1 2 4 5 4 4 4 2 2 3
0 0 0 0 0 0 0 0 0 0 0 0 1 1 2 4 5 5 4 2 2 2 2 1 0 0 0 0 0 0 0 0 0 1 1 1 1 0 0 1 2 3 3 3 3 2 1 1 1
0 0 0 0 0 0 0 0 0 0 0 1 3 4 5 6 6 6 5 3 2 1 2 1 1 1 1 1 0 0 1 1 1 2 2 2 2 1 1 0 1 1 1 1 1 1 0 0 0
0 0 0 0 1 1 1 1 0 1 1 2 5 8 10 9 7 5 3 3 2 2 1 1 2 3 3 2 1 1 2 2 3 3 3 3 3 3 2 1 0 0 0 0 0 0 0 0 0
0 0 0 1 2 2 2 1 0 1 3 5 7 10 12 11 8 5 2 2 3 2 2 2 3 3 3 3 3 3 3 3 3 3 3 3 3 2 2 1 0 0 0 0 0 0 0 0 0
1 1 1 2 3 3 1 0 0 2 8 11 9 9 11 11 9 6 3 2 2 1 1 1 2 3 3 3 3 3 3 3 2 2 2 2 1 1 1 0 0 0 0 0 0 0 0 0 0
2 2 3 3 3 3 1 1 1 5 11 13 9 8 10 10 11 10 7 4 2 1 1 1 2 3 3 3 3 3 2 1 1 1 1 1 0 0 0 0 0 0 0 0 0 0 0 0 0
2 3 3 3 3 3 2 1 2 7 12 12 10 9 9 9 10 12 10 7 5 4 4 4 4 4 4 3 2 1 1 0 0 0 0 0 0 0 0 0 0 0 0 0 0 0 0 0 0
1 2 3 3 3 3 3 1 3 9 11 10 9 9 8 8 8 10 10 10 9 8 8 8 7 6 4 3 1 0 0 0 0 0 0 0 0 0 0 0 0 0 0 0 0 0 0 0 0
0 1 1 2 3 3 2 1 4 8 9 9 9 8 8 7 7 6 8 10 11 11 10 9 8 6 4 2 1 0 0 0 0 0 0 0 0 0 0 0 0 0 0 0 0 0 0 0 0
0 0 0 1 2 3 2 1 4 7 9 11 12 10 8 7 6 5 6 9 12 13 12 11 10 7 5 4 3 1 0 0 0 0 0 0 0 0 0 0 0 0 0 0 0 0 0 0 0
0 0 0 0 1 2 1 1 2 6 8 11 12 11 9 8 7 5 6 10 13 15 14 13 10 9 8 7 6 3 1 0 0 0 1 1 1 1 1 1 0 0 0 0 0 0 0 0 0
0 0 0 0 0 0 0 0 1 3 5 7 8 8 8 9 8 7 8 10 12 15 14 12 11 10 11 10 9 6 4 2 2 1 1 1 2 4 5 4 2 1 0 0 0 0 0 0 0
0 0 0 0 0 0 0 0 0 0 2 3 4 5 6 9 10 9 9 10 13 14 12 10 10 11 12 12 12 10 8 7 5 3 2 2 3 5 7 7 5 2 1 0 0 0 1 2 1
0 0 0 0 0 0 0 0 0 0 0 1 2 3 4 8 10 10 9 10 12 13 11 10 10 11 12 14 14 13 12 11 8 5 4 3 4 5 7 7 5 3 2 1 1 1 2 3 3
0 0 0 0 0 0 0 0 0 0 0 0 1 2 4 8 12 12 10 9 10 11 11 10 11 11 12 13 13 13 14 13 11 8 6 5 5 5 6 7 5 4 4 3 2 1 2 3 4
0 0 0 0 0 0 0 0 0 0 1 1 2 3 7 11 14 13 11 9 9 10 11 11 12 12 12 13 13 13 15 15 13 11 9 7 5 5 7 7 6 5 5 5 4 3 4 5 6
0 0 0 0 0 0 0 0 0 0 1 2 4 6 9 13 14 14 12 11 10 10 11 12 13 13 13 13 13 13 14 14 13 13 12 10 7 6 7 8 7 6 5 4 5 6 6 6 6
0 0 0 0 0 0 0 0 0 0 1 3 4 6 8 10 12 12 11 12 11 11 11 12 12 12 12 12 12 12 13 13 12 13 13 11 9 7 8 8 8 6 5 5 5 6 7 7 6
0 0 0 0 0 0 0 0 0 1 1 2 3 3 4 7 9 9 11 13 13 11 10 10 10 11 12 11 11 12 13 13 12 12 11 10 10 10 9 9 8 7 6 6 6 7 7 7 5
0 0 0 0 0 0 0 0 0 1 1 2 2 1 2 5 7 9 12 14 13 11 9 8 9 10 10 11 12 14 16 16 14 12 10 10 10 10 10 8 7 7 7 7 8 7 7 6 5
0 0 0 0 0 0 0 0 0 1 1 1 2 1 1 4 7 10 13 14 13 11 9 8 9 9 9 12 13 15 17 18 16 12 10 11 11 9 8 7 6 6 7 8 9 8 7 6 4
Wind_Speed
7 5 3 1 2 4 3 2 1 2 3 2 4 5 5 3 2 1 0 4 4 4 3 7 10 10 10 10 10 10 11 12 12 12 13 13 13 13 13 13 13 12 12 11 11 11 10 10 9
5 5 1 1 4 3 3 2 2 2 3 3 4 5 5 4 3 4 2 2 5 4 3 6 10 10 10 10 10 10 11 11 11 12 12 12 13 12 12 12 12 11 11 11 11 10 9 9 8
6 3 1 3 3 1 1 1 2 3 3 3 4 4 4 3 3 3 2 5 5 4 4 5 10 10 10 10 10 10 10 10 10 11 11 12 11 11 11 11 11 10 10 9 9 9 8 8 7
3 0 2 4 2 1 1 1 3 4 3 5 4 5 4 3 2 3 6 7 6 4 3 4 9 9 10 10 10 10 10 9 9 9 9 10 10 10 10 10 10 9 9 8 8 7 7 6 6
1 2 4 3 2 1 0 1 2 3 3 4 4 4 3 4 6 8 7 7 5 4 3 3 9 9 9 9 10 10 9 9 8 8 8 8 8 9 9 9 8 8 8 7 6 6 6 5 5
2 3 4 2 2 1 1 2 3 4 3 4 4 4 3 3 6 7 6 5 4 4 3 3 7 8 8 8 9 9 9 8 8 7 7 7 7 7 7 7 7 6 6 6 5 5 5 5 4
2 3 2 0 1 1 1 2 3 3 3 3 3 4 2 2 5 6 5 5 4 4 3 2 2 4 7 7 7 8 7 7 7 6 6 6 6 6 6 6 6 5 5 5 4 4 4 4 3
2 3 2 0 0 1 1 2 2 3 3 3 4 5 4 4 6 7 6 5 4 3 2 2 2 3 2 3 6 6 6 6 5 5 5 4 4 3 4 4 4 5 4 4 4 4 4 4 4
2 4 0 2 3 1 2 3 2 3 5 3 2 3 5 11 10 8 6 4 3 2 1 2 2 2 2 2 3 4 5 4 3 2 3 2 1 1 0 1 2 3 3 4 4 4 4 3 3
3 2 4 4 4 3 3 3 4 3 4 3 4 6 10 11 10 9 7 6 4 3 2 1 2 1 2 1 1 1 1 2 1 1 1 1 1 1 0 1 2 2 3 3 4 4 3 2 1
3 4 3 2 3 3 3 3 3 6 2 4 7 11 12 11 8 8 7 6 5 3 2 2 2 1 2 1 1 1 1 1 1 1 1 1 1 1 1 1 1 1 1 1 1 1 1 1 1
2 3 3 2 2 3 4 4 3 4 4 5 9 13 13 12 10 8 8 6 4 3 3 2 2 2 1 1 1 1 1 1 1 0 1 1 0 0 1 1 1 1 1 1 1 1 1 2 2
2 2 2 1 2 3 4 3 3 1 3 8 10 11 11 11 9 6 6 5 5 4 4 3 3 3 2 1 1 1 1 0 0 0 0 1 1 0 0 1 1 1 1 1 1 1 1 2 2
2 0 1 1 2 2 4 1 2 2 6 9 10 10 10 10 9 7 6 6 5 5 5 4 3 3 3 2 1 1 1 1 0 0 0 0 1 1 0 1 1 1 1 1 1 1 1 1 1
2 3 3 1 1 2 5 1 3 5 8 8 8 8 9 8 8 8 8 7 7 5 5 4 4 3 3 3 2 1 1 1 1 1 0 0 1 1 0 0 1 1 1 1 1 1 1 1 1
3 4 2 3 1 2 5 4 4 7 9 7 7 7 7 7 8 7 6 6 5 5 4 4 4 4 3 3 2 1 1 1 1 1 0 1 1 1 1 1 1 1 0 0 0 0 0 1 1
4 1 2 3 1 2 3 4 3 6 8 8 7 7 7 7 7 6 6 6 6 6 5 5 4 4 3 3 2 2 2 1 1 1 0 1 1 0 1 1 1 1 0 0 1 0 0 0 1
2 1 2 3 2 3 2 4 3 5 8 8 7 7 8 9 9 7 7 7 5 5 4 4 4 3 3 2 2 1 1 0 0 1 1 1 0 0 0 0 1 1 1 1 0 0 0 0 1
3 2 3 4 1 2 3 4 4 5 6 7 8 8 8 9 6 6 6 6 6 5 5 5 4 4 3 2 2 1 1 1 0 1 1 1 1 0 0 0 1 1 0 1 1 0 0 0 0
2 1 2 3 1 2 1 3 2 5 8 8 9 9 9 7 5 6 6 7 7 7 6 5 4 4 4 3 2 2 1 1 1 1 1 1 1 1 1 1 0 0 0 1 1 0 0 0 1
2 4 4 3 2 3 2 4 2 2 3 3 5 6 7 9 9 8 8 8 7 8 7 6 5 4 3 3 2 2 2 1 1 1 1 1 1 1 1 1 1 1 1 1 1 0 1 1 0
4 5 5 2 2 2 2 2 5 2 2 5 6 6 8 8 8 8 8 8 8 8 7 6 5 4 4 4 3 3 2 2 2 1 1 1 1 1 1 1 1 1 1 1 1 1 1 2 1
5 1 2 2 3 2 3 1 7 1 3 7 7 7 8 9 9 9 10 9 7 7 6 6 5 5 4 4 4 4 2 2 1 0 0 1 1 1 1 1 1 1 1 1 1 1 1 2 2
3 5 6 6 5 1 2 2 6 3 6 5 6 7 7 7 8 8 7 6 6 6 6 6 6 5 5 5 5 5 4 3 2 1 1 1 1 1 1 1 1 1 1 2 2 2 2 2 2
4 6 4 5 4 4 2 2 8 6 5 6 6 7 6 6 7 7 8 8 8 8 8 7 7 6 5 6 5 5 5 4 4 3 2 2 1 1 2 1 1 1 1 2 1 1 2 2 2
3 8 7 5 4 4 2 4 7 5 4 3 3 4 4 5 6 8 8 8 8 9 8 8 7 6 6 6 5 5 4 3 3 3 3 2 2 2 2 1 1 1 1 1 1 0 1 1 2
5 3 5 7 2 1 4 6 8 3 3 2 1 1 3 5 6 7 7 6 7 7 7 8 7 6 6 6 5 4 4 4 3 3 2 2 2 2 1 1 1 1 1 1 0 1 1 1 1
4 8 6 6 5 3 4 4 5 5 4 3 2 2 3 3 4 4 5 6 6 6 6 6 6 6 5 6 5 4 4 4 3 2 2 2 2 2 1 1 1 1 1 1 1 1 1 1 1
3 4 5 5 5 6 3 7 5 5 5 4 5 4 4 4 4 4 4 4 4 4 5 5 5 4 4 5 4 4 3 3 3 2 3 2 2 2 2 2 2 2 1 1 1 1 1 1 1
4 5 7 5 4 4 4 8 4 3 3 3 3 2 2 3 2 3 3 3 3 3 4 4 5 5 4 3 3 3 3 3 3 3 2 2 2 3 3 3 2 2 2 1 2 2 2 2 2
Wind_Direction
159 148 151 165 51 45 16 338 24 55 54 52 82 84 95 82 109 138 59 125 125 135 155 149 142 137 132 128 125 124 122 123 126 130 133 137 136 138 141 142 142 141 139 137 136 136 135 135 133
149 157 180 61 68 47 343 331 58 62 115 109 77 70 69 59 59 100 114 126 119 122 130 140 139 136 132 129 126 124 123 124 125 129 134 138 138 140 143 145 144 144 142 141 141 142 141 140 137
166 191 72 60 69 125 271 327 109 93 87 66 70 61 69 80 105 125 140 125 107 103 108 138 135 134 132 128 125 125 124 125 126 129 135 139 140 143 145 148 147 147 146 147 147 147 147 145 144
169 131 48 63 54 264 217 210 125 111 61 46 75 69 61 59 120 124 122 118 111 103 104 137 136 134 130 126 125 125 124 124 126 129 133 138 141 143 144 145 148 150 152 154 155 155 155 155 154
114 69 50 36 8 341 357 125 118 99 77 63 76 84 51 21 89 110 118 119 118 114 110 137 137 133 131 130 126 124 123 127 128 128 130 135 140 144 145 147 151 155 157 161 166 167 167 165 166
53 59 60 15 346 356 18 92 101 90 90 96 93 94 63 73 105 118 115 111 112 112 102 124 140 138 135 134 132 130 129 131 131 132 131 134 139 146 148 152 155 160 163 169 175 180 184 178 180
86 77 86 317 337 343 148 115 113 113 104 114 115 98 89 107 119 115 105 98 97 96 94 92 125 137 139 138 135 136 134 134 134 133 130 131 138 146 153 159 163 173 180 183 189 197 200 195 196
128 90 45 345 191 276 156 120 108 114 112 105 106 130 163 163 128 108 95 89 91 88 87 89 85 88 109 128 137 137 135 134 134 134 133 132 136 144 160 165 176 186 194 196 198 208 218 215 213
116 70 334 220 189 218 150 124 100 89 101 89 84 129 144 135 126 114 106 97 105 114 87 88 91 88 96 116 146 141 140 138 140 134 134 118 72 62 117 190 198 201 207 214 217 221 227 228 224
108 132 228 215 184 171 158 143 146 112 100 88 78 92 120 132 137 140 146 149 154 165 165 118 111 107 101 131 108 85 98 98 90 82 81 66 59 41 14 299 257 236 233 236 231 227 228 231 231
165 204 232 232 174 154 145 135 131 131 163 183 157 144 143 145 150 156 161 164 171 174 171 157 149 132 124 111 103 87 83 91 89 77 75 65 51 17 359 345 322 312 272 272 251 224 198 220 217
189 252 230 226 146 134 147 143 126 161 194 159 151 148 152 158 165 171 171 171 162 161 183 179 167 152 154 141 123 112 99 99 100 59 75 94 74 9 335 320 317 319 299 272 237 215 214 216 219
203 272 277 203 106 128 122 132 133 156 119 121 133 145 159 166 171 172 166 165 163 176 188 188 174 169 166 148 149 132 116 111 97 36 33 148 159 230 289 316 317 309 311 262 249 240 238 222 215
226 55 353 2 99 116 123 107 108 176 133 131 143 157 166 172 172 165 167 173 179 185 187 187 178 182 165 161 162 147 138 139 102 2 296 195 188 214 271 325 315 310 298 253 236 250 246 245 228
52 45 8 4 85 124 112 41 213 171 142 146 157 163 169 178 175 180 183 182 184 186 183 181 178 166 165 172 174 152 147 148 177 248 297 292 251 239 229 257 299 302 307 280 237 266 239 237 231
49 57 348 286 129 135 129 239 229 162 154 165 170 170 176 186 188 187 184 182 179 174 174 178 175 163 166 163 161 139 134 146 184 221 274 277 256 223 210 241 282 292 335 317 238 243 236 253 261
36 41 275 287 206 140 158 242 223 167 166 180 183 181 185 191 195 190 181 183 178 176 173 170 166 160 168 162 150 139 137 157 201 204 208 258 269 252 209 259 290 313 338 300 271 352 160 247 283
246 259 277 262 244 137 192 250 210 182 180 187 192 192 193 198 204 191 181 179 174 171 168 167 162 157 151 143 127 105 104 167 215 224 239 252 261 243 174 260 318 358 19 3 31 102 114 195 246
176 183 272 273 237 150 217 246 216 191 190 191 196 200 203 209 201 181 177 171 166 168 169 172 169 167 153 150 155 153 193 221 234 238 245 248 256 249 168 292 348 358 347 298 291 253 114 30 108
173 208 267 300 10 152 222 281 231 194 206 200 198 204 207 205 190 185 184 178 179 182 182 180 181 174 171 169 159 151 151 194 214 284 304 282 277 274 236 226 248 281 325 330 318 276 180 142 100
208 207 223 232 356 37 53 339 318 253 220 211 206 206 204 203 199 192 189 189 185 189 188 186 184 178 171 156 125 105 78 49 33 340 303 294 278 261 249 229 222 222 197 251 291 179 169 172 110
248 227 205 192 95 324 59 290 290 257 251 229 218 206 207 206 199 193 191 190 194 193 183 179 178 176 169 156 152 156 165 189 221 223 258 293 287 280 265 249 240 232 227 236 245 168 167 165 200
217 150 123 109 122 38 15 136 289 323 264 247 230 213 209 204 195 193 196 194 190 182 179 180 174 175 168 164 167 166 182 201 211 177 297 303 310 305 283 266 261 235 228 227 235 218 175 179 196
150 68 55 48 70 29 259 172 279 250 238 254 235 219 208 200 195 194 192 180 181 177 175 174 175 186 178 173 173 179 185 189 185 206 258 287 299 302 306 302 295 253 236 224 206 214 188 192 192
88 87 35 4 14 255 255 189 251 259 252 237 231 222 207 195 191 190 187 186 186 185 184 179 179 190 185 180 185 189 192 190 197 207 218 239 270 289 295 314 301 287 268 243 217 198 203 195 187
165 138 155 193 216 272 323 234 254 274 286 259 221 201 187 190 191 192 194 192 192 190 186 183 186 193 188 187 193 193 193 193 204 209 210 219 233 252 268 262 267 279 282 277 260 228 237 197 200
139 164 160 133 149 256 285 289 300 317 351 14 65 137 192 197 197 197 191 188 187 187 188 188 188 193 192 193 190 190 192 195 206 213 211 219 233 237 241 249 253 267 263 273 290 269 259 232 233
130 141 104 119 148 236 284 278 265 290 299 306 286 232 221 199 187 185 185 186 185 183 180 176 179 191 193 189 190 190 194 199 199 197 214 225 237 236 232 251 247 257 260 249 234 259 255 233 252
105 100 106 116 149 160 231 265 242 232 235 232 239 233 206 192 187 183 182 179 170 165 169 174 171 173 183 189 186 183 189 190 189 202 221 226 234 228 223 229 232 237 244 246 232 249 243 243 268
155 162 148 152 206 169 178 261 285 239 237 215 231 237 195 176 163 157 152 143 149 164 174 180 171 179 187 172 165 185 188 188 192 212 227 218 226 233 228 225 227 234 238 227 224 237 237 232 251